• In Belarus
  • List of Countries
  • For 7 days
  • Water Temperature
  • Weather Map
  • Weather Widgets
  • user-avatar
    Login

    Hourly Weather Linz

    Today, 5 June, Friday

    Time Temperature Precipitation Wind Pressure Humidity
    00:00 +13°C° 0.4 mm 4 mps 719 mmHg 96%
    01:00 +12°C° 0.4 mm 3 mps 719 mmHg 96%
    02:00 +12°C° 1.3 mm 3 mps 719 mmHg 96%
    03:00 +12°C° 1.3 mm 3 mps 719 mmHg 95%
    04:00 +11°C° 1.3 mm 3 mps 719 mmHg 95%
    05:00 +12°C° 0.1 mm 3 mps 719 mmHg 93%
    06:00 +13°C° 0.1 mm 3 mps 720 mmHg 90%
    07:00 +13°C° 0.1 mm 3 mps 720 mmHg 88%
    08:00 +13°C° 0.3 mm 4 mps 720 mmHg 88%
    09:00 +14°C° 0.3 mm 4 mps 721 mmHg 88%
    10:00 +14°C° 0.3 mm 5 mps 721 mmHg 88%
    11:00 +15°C° 0.2 mm 4 mps 721 mmHg 81%
    12:00 +17°C° 0.2 mm 4 mps 722 mmHg 74%
    13:00 +18°C° 0.2 mm 4 mps 722 mmHg 67%
    14:00 +18°C° 0.1 mm 4 mps 722 mmHg 67%
    15:00 +18°C° 0.1 mm 3 mps 722 mmHg 66%
    16:00 +19°C° 0.1 mm 3 mps 722 mmHg 65%
    17:00 +18°C° 0.1 mm 3 mps 722 mmHg 71%
    18:00 +17°C° 0.1 mm 2 mps 722 mmHg 77%
    19:00 +16°C° 0.1 mm 2 mps 722 mmHg 82%
    20:00 +15°C° 0.1 mm 2 mps 723 mmHg 83%
    21:00 +15°C° 0.1 mm 2 mps 724 mmHg 84%
    22:00 +14°C° 0.1 mm 2 mps 724 mmHg 85%
    23:00 +14°C° 0.1 mm 2 mps 725 mmHg 86%

    Tomorrow, 6 June, Saturday

    Time Temperature Precipitation Wind Pressure Humidity
    00:00 +13°C° 0.1 mm 2 mps 725 mmHg 88%
    01:00 +13°C° 0.1 mm 2 mps 725 mmHg 89%
    02:00 +13°C° 0.1 mm 1 mps 725 mmHg 90%
    03:00 +13°C° 0.1 mm 1 mps 726 mmHg 91%
    04:00 +13°C° 0.1 mm 1 mps 726 mmHg 92%
    05:00 +13°C° 0 mm 1 mps 726 mmHg 90%
    06:00 +14°C° 0 mm 1 mps 726 mmHg 88%
    07:00 +15°C° 0 mm 2 mps 726 mmHg 87%
    08:00 +16°C° 0 mm 2 mps 727 mmHg 82%
    09:00 +18°C° 0 mm 2 mps 727 mmHg 77%
    10:00 +19°C° 0 mm 2 mps 727 mmHg 72%
    11:00 +20°C° 0 mm 2 mps 727 mmHg 69%
    12:00 +20°C° 0 mm 2 mps 726 mmHg 66%
    13:00 +21°C° 0 mm 2 mps 726 mmHg 64%
    14:00 +21°C° 0 mm 2 mps 726 mmHg 64%
    15:00 +23°C° 0 mm 2 mps 726 mmHg 64%
    16:00 +23°C° 0 mm 2 mps 726 mmHg 64%
    17:00 +21°C° 0.1 mm 2 mps 726 mmHg 70%
    18:00 +19°C° 0.1 mm 2 mps 726 mmHg 77%
    19:00 +18°C° 0.1 mm 2 mps 726 mmHg 83%
    20:00 +17°C° 1 mm 2 mps 726 mmHg 87%
    21:00 +16°C° 1 mm 2 mps 727 mmHg 92%
    22:00 +15°C° 1 mm 2 mps 727 mmHg 96%
    23:00 +15°C° 0.7 mm 1 mps 727 mmHg 97%

    Day after tomorrow, 7 June, Sunday

    Time Temperature Precipitation Wind Pressure Humidity
    00:00 +14°C° 0.7 mm 1 mps 727 mmHg 97%
    01:00 +13°C° 0.7 mm 0 mps 727 mmHg 97%
    02:00 +13°C° 0.1 mm 0 mps 727 mmHg 97%
    03:00 +13°C° 0.1 mm 0 mps 727 mmHg 97%
    04:00 +14°C° 0.1 mm 1 mps 727 mmHg 97%
    05:00 +13°C° 0.1 mm 0 mps 727 mmHg 96%
    06:00 +14°C° 0.1 mm 0 mps 727 mmHg 96%
    07:00 +14°C° 0.1 mm 0 mps 727 mmHg 95%
    08:00 +15°C° 0.1 mm 1 mps 727 mmHg 95%
    09:00 +15°C° 0.1 mm 1 mps 728 mmHg 95%
    10:00 +16°C° 0.1 mm 2 mps 728 mmHg 94%
    11:00 +15°C° 0.2 mm 2 mps 728 mmHg 94%
    12:00 +15°C° 0.2 mm 2 mps 728 mmHg 94%
    13:00 +14°C° 0.2 mm 3 mps 728 mmHg 94%
    14:00 +15°C° 0.4 mm 2 mps 728 mmHg 95%
    15:00 +14°C° 0.4 mm 2 mps 729 mmHg 95%
    16:00 +14°C° 0.4 mm 2 mps 729 mmHg 96%
    17:00 +14°C° 0.2 mm 1 mps 729 mmHg 96%
    18:00 +13°C° 0.2 mm 1 mps 729 mmHg 96%
    19:00 +13°C° 0.2 mm 1 mps 729 mmHg 96%
    20:00 +13°C° 0.7 mm 1 mps 730 mmHg 96%
    21:00 +13°C° 0.7 mm 1 mps 730 mmHg 97%
    22:00 +12°C° 0.7 mm 1 mps 730 mmHg 97%
    23:00 +12°C° 0.7 mm 1 mps 730 mmHg 97%

    8 June, Monday

    Time Temperature Precipitation Wind Pressure Humidity
    00:00 +12°C° 0.7 mm 1 mps 730 mmHg 97%
    01:00 +12°C° 0.7 mm 1 mps 729 mmHg 96%
    02:00 +12°C° 0 mm 1 mps 729 mmHg 96%
    03:00 +12°C° 0 mm 1 mps 729 mmHg 96%
    04:00 +12°C° 0 mm 1 mps 729 mmHg 95%
    05:00 +12°C° 0.1 mm 1 mps 729 mmHg 95%
    06:00 +12°C° 0.1 mm 1 mps 729 mmHg 95%
    07:00 +12°C° 0.1 mm 1 mps 729 mmHg 94%
    08:00 +12°C° 0.1 mm 1 mps 729 mmHg 94%
    09:00 +13°C° 0.1 mm 1 mps 729 mmHg 94%
    10:00 +13°C° 0.1 mm 1 mps 729 mmHg 94%
    11:00 +13°C° 0.1 mm 1 mps 729 mmHg 92%
    12:00 +14°C° 0.1 mm 1 mps 729 mmHg 90%
    13:00 +14°C° 0.1 mm 1 mps 729 mmHg 88%
    14:00 +15°C° 0 mm 1 mps 729 mmHg 84%
    15:00 +16°C° 0 mm 1 mps 729 mmHg 81%
    16:00 +18°C° 0 mm 1 mps 729 mmHg 77%
    17:00 +16°C° 0.1 mm 1 mps 729 mmHg 81%
    18:00 +16°C° 0.1 mm 1 mps 729 mmHg 84%
    19:00 +14°C° 0.1 mm 0 mps 729 mmHg 88%
    20:00 +15°C° 0.1 mm 1 mps 730 mmHg 90%
    21:00 +14°C° 0.1 mm 1 mps 730 mmHg 91%
    22:00 +14°C° 0.1 mm 1 mps 730 mmHg 93%
    23:00 +13°C° 0.2 mm 1 mps 730 mmHg 94%

    9 June, Tuesday

    Time Temperature Precipitation Wind Pressure Humidity
    00:00 +13°C° 0.2 mm 1 mps 730 mmHg 94%
    01:00 +13°C° 0.2 mm 1 mps 730 mmHg 95%
    02:00 +13°C° 0.6 mm 1 mps 730 mmHg 96%
    03:00 +13°C° 0.6 mm 1 mps 730 mmHg 96%
    04:00 +13°C° 0.6 mm 1 mps 730 mmHg 97%
    05:00 +13°C° 0.7 mm 1 mps 730 mmHg 97%
    06:00 +13°C° 0.7 mm 1 mps 730 mmHg 97%
    07:00 +13°C° 0.7 mm 1 mps 731 mmHg 97%
    08:00 +13°C° 1 mm 1 mps 731 mmHg 97%
    09:00 +13°C° 1 mm 1 mps 731 mmHg 97%
    10:00 +14°C° 1 mm 1 mps 731 mmHg 96%
    11:00 +14°C° 0.6 mm 1 mps 731 mmHg 95%
    12:00 +14°C° 0.6 mm 1 mps 731 mmHg 94%
    13:00 +14°C° 0.6 mm 1 mps 732 mmHg 93%
    14:00 +14°C° 0.3 mm 1 mps 731 mmHg 92%
    15:00 +15°C° 0.3 mm 1 mps 731 mmHg 90%
    16:00 +15°C° 0.3 mm 1 mps 731 mmHg 89%
    17:00 +15°C° 0 mm 1 mps 732 mmHg 90%
    18:00 +13°C° 0 mm 0 mps 732 mmHg 92%
    19:00 +13°C° 0 mm 0 mps 732 mmHg 93%
    20:00 +12°C° 0 mm 0 mps 732 mmHg 93%
    21:00 +12°C° 0 mm 0 mps 732 mmHg 94%
    22:00 +11°C° 0 mm 0 mps 733 mmHg 94%
    23:00 +11°C° 0 mm 0 mps 733 mmHg 94%

    10 June, Wednesday

    Time Temperature Precipitation Wind Pressure Humidity
    00:00 +10°C° 0 mm 0 mps 733 mmHg 94%
    01:00 +10°C° 0 mm 0 mps 733 mmHg 94%
    02:00 +10°C° 0 mm 0 mps 733 mmHg 94%
    03:00 +9°C° 0 mm 0 mps 733 mmHg 94%
    04:00 +9°C° 0 mm 0 mps 733 mmHg 94%
    05:00 +10°C° 0 mm 0 mps 733 mmHg 91%
    06:00 +12°C° 0 mm 0 mps 733 mmHg 88%
    07:00 +14°C° 0 mm 0 mps 733 mmHg 86%
    08:00 +16°C° 0 mm 1 mps 733 mmHg 80%
    09:00 +19°C° 0 mm 1 mps 733 mmHg 75%
    10:00 +20°C° 0 mm 1 mps 734 mmHg 70%
    11:00 +21°C° 0.1 mm 1 mps 733 mmHg 68%
    12:00 +22°C° 0.1 mm 1 mps 733 mmHg 65%
    13:00 +23°C° 0.1 mm 1 mps 733 mmHg 63%
    14:00 +23°C° 0 mm 1 mps 733 mmHg 63%
    15:00 +23°C° 0 mm 1 mps 733 mmHg 62%
    16:00 +23°C° 0 mm 2 mps 733 mmHg 62%
    17:00 +22°C° 0.2 mm 1 mps 733 mmHg 68%
    18:00 +21°C° 0.2 mm 1 mps 733 mmHg 75%
    19:00 +20°C° 0.2 mm 1 mps 733 mmHg 82%
    20:00 +19°C° 0.1 mm 1 mps 733 mmHg 86%
    21:00 +16°C° 0.1 mm 1 mps 734 mmHg 90%
    22:00 +15°C° 0.1 mm 1 mps 734 mmHg 94%
    23:00 +14°C° 0 mm 1 mps 734 mmHg 94%
    Show more